This demonstration page uses our WeatherBlox Daily Observations layout. Learn more.

Left ArrowRight Arrow

39.01783, -85.05884

Hourly Observations for May 1, 2018

Temp ( °F °C ) Dew Point ( °F °C ) Humidity (%) Winds ( mph kmh ) Pressure ( in mb ) Visibility ( mi km ) Precip ( " mm )
12:52 am 00:52 Clear 54 12.2 34 1.1 47 47 S 6 9 30.12 1020 10 16 N/A
1:52 am 01:52 Clear 49 9.4 38 3.3 66 66 S 7 11 30.11 1020 10 16 N/A
2:52 am 02:52 Clear 51 10.6 31 -0.6 46 46 SSW 8 13 30.10 1019 10 16 N/A
3:52 am 03:52 Clear 48 8.9 32 undefined 54 54 S 8 13 30.11 1020 10 16 N/A
4:52 am 04:52 Clear 49 9.4 31 -0.6 50 50 S 9 15 30.11 1020 10 16 N/A
5:52 am 05:52 Clear 50 10 31 -0.6 48 48 SSW 8 13 30.12 1020 10 16 N/A
6:52 am 06:52 Mostly Sunny 50 10 31 -0.6 48 48 SSW 7 11 30.15 1021 10 16 N/A
7:52 am 07:52 Sunny 52 11.1 37 2.8 57 57 SSW 8 13 30.16 1022 10 16 N/A
8:52 am 08:52 Sunny 60 15.6 37 2.8 42 42 SSW 7 11 30.17 1022 10 16 N/A
9:52 am 09:52 Sunny 65 18.3 38 3.3 37 37 SW 8 13 30.18 1022 10 16 N/A
10:52 am 10:52 Sunny 69 20.6 40 4.4 35 35 SW 8 13 30.17 1022 10 16 N/A
11:52 am 11:52 Sunny 73 22.8 41 5 32 32 SW 10 17 30.18 1022 10 16 N/A
12:52 pm 12:52 Sunny 75 23.9 40 4.4 28 28 SW 13 20 30.16 1021 10 16 N/A
1:52 pm 13:52 Sunny 76 24.4 41 5 29 29 S 16 26 30.14 1021 10 16 N/A
2:52 pm 14:52 Mostly Sunny 78 25.6 42 5.6 28 28 SSW 10 17 30.12 1020 10 16 N/A
3:52 pm 15:52 Partly Cloudy 78 25.6 39 3.9 25 25 SSW 12 19 30.11 1020 10 16 N/A
4:52 pm 16:52 Mostly Sunny 78 25.6 43 6.1 29 29 SSW 14 22 30.09 1019 10 16 N/A
5:52 pm 17:52 Mostly Sunny 78 25.6 43 6.1 29 29 S 13 20 30.09 1019 10 16 N/A
6:52 pm 18:52 Partly Cloudy 77 25 41 5 28 28 SW 10 17 30.08 1019 10 16 N/A
8:52 pm 20:52 Mostly Clear 68 20 41 5 38 38 S 7 11 30.09 1019 10 16 N/A
9:52 pm 21:52 Partly Cloudy 66 18.9 42 5.6 42 42 S 7 11 30.08 1019 10 16 N/A
10:52 pm 22:52 Mostly Cloudy 64 17.8 43 6.1 46 46 S 8 13 30.07 1018 10 16 N/A
11:52 pm 23:52 Mostly Clear 65 18.3 42 5.6 43 43 SSW 8 13 30.09 1019 10 16 N/A

Powered by AerisWeather